Regional Weather Roundup
Issued by NWS Newport/Morehead, NC

Current Version | Previous Version | Text Only | Print | Product List | Glossary On
Versions: 1 2 3 4 5 6 7 8 9 10 11 12 13 14 15 16 17 18 19 20 21 22 23 24 25 26 27 28 29 30 31 32 33 34 35 36 37 38 39 40 41 42 43 44 45 46 47 48 49 50
000
ASUS42 KMHX 300913
RWRMHX
WEATHER ROUNDUP FOR EASTERN NORTH CAROLINA
NATIONAL WEATHER SERVICE NEWPORT/MOREHEAD CITY NC
500 AM EDT SAT MAY 30 2015

NOTE: "FAIR" INDICATES FEW OR NO CLOUDS BELOW 12,000 FEET
WITH NO SIGNIFICANT WEATHER AND/OR OBSTRUCTIONS TO VISIBILITY

NCZ015>017-031-032-045>047-102-103-301000-
NORTH COAST

CITY           SKY/WX    TMP DP  RH WIND       PRES   REMARKS
EDENTON        PTCLDY    67  65  93 CALM      30.20S
ELIZABETH CITY PTCLDY    67  66  97 CALM      30.21R
KITTY HAWK       N/A     69  66  89 CALM      30.19S
MANTEO         PTCLDY    67  65  93 CALM      30.21R

$$

NCZ045>047-081-094-103-104-301000-
CENTRAL COAST

CITY           SKY/WX    TMP DP  RH WIND       PRES   REMARKS
FRISCO         PTCLDY    73  64  73 SE6       30.20R
SWANQUARTER      N/A     68 N/A N/A E2        30.18R

$$

NCZ095-097-098-100-101-301000-
SOUTHERN COAST

CITY           SKY/WX    TMP DP  RH WIND       PRES   REMARKS
BEAUFORT       PTCLDY    68  65  90 CALM      30.19R
CEDAR ISLAND     N/A     70 N/A N/A CALM      30.24R
JACKSONVILLE   CLEAR     70  65  84 N5        30.18R
PINEY ISLAND   MOSUNNY  N/A N/A N/A CALM      30.19R
WILMINGTON     PTCLDY    67  65  93 CALM      30.17R


$$

NCZ011>013-027>030-043-044-078>080-089-090>093-098-301000-
COASTAL PLAIN

CITY           SKY/WX    TMP DP  RH WIND       PRES   REMARKS
AHOSKIE        CLEAR     63  63  97 CALM      30.21R
CLINTON        PTCLDY    67  67 100 CALM      30.19S
ELIZABETHTOWN  MOCLDY    66  66 100 CALM      30.18R
GOLDSBORO      CLEAR     66  65  97 CALM      30.17R
GREENVILLE     PTCLDY    66  66 100 CALM      30.21R
HAVELOCK       CLEAR     66  62  87 CALM      30.20R
KENANSVILLE    MOCLDY    65  64  95 CALM      30.19S
KINSTON        MOCLDY    69  67  92 CALM      30.20R
NEW BERN       PTCLDY    67  64  90 CALM      30.20R
RICHLANDS      MOCLDY    66  61  82 CALM      30.19S
ROCKY MOUNT    PTCLDY    67  66  97 CALM      30.20R
WASHINGTON     PTCLDY    65  64  96 CALM      30.20R
WHITEVILLE     CLEAR     66  64  95 CALM      30.17R

$$

AMZ130-135-150-152-154-156-158-170-250-252-270-ANZ085-086-088-633-658-670-301000-
MARINE OBSERVATIONS

STATION/POSITION TIME  TEMP    WIND        PRES    WAVE   SWELL
                       AIR SEA DIR/SP/G            HT/PER HT/PER
                 (UTC) (F)     (DEG/KT/KT) (MB)    (FT/S) (FT/S)
CHESAPEAKE LIGHT 0800   70     170/ 11/ 11 1023.3
64 E VA BEACH    0850   69 66  130/  4/  4 1022.6    3/ 9   3/ 9
DUCK             0800   68 59  110/  4/  4 1021.5
2 E DUCK         0811      65                N/A     3/ 9
OREGON INLET     0800   71 75  120/  4/  5 1022.3
13E OREGON INLT  0900      75                N/A     4/10   2/11
HATTERAS CG      0800   75 78  140/  5/  7 1021.7
DIAMOND BUOY     0850   75 79  120/  6/  8 1022.4    4/ 9   3/ 9
CAPE LOOKOUT     0900   74     120/  3/  3 1022.0
BEAUFORT LAB     0800   73 76  100/  2/  2 1021.1
27 SE WRIGHTSVLE 0800      75  170/  8/ 10   N/A
5 SE WRIGHTSVLE  0808   76 77  140/  8/ 12 1021.1
225 S CAPE HAT   0850   74 74   70/  8/ 10 1020.4    7/ 9   7/ 9
41 SE CHARLESTON 0850   77 79   90/ 14/ 16 1019.4    5/ 8   3/ 8

$$


USA.gov is the U.S. government's official web portal to all federal, state and local government web resources and services.